THORAD AGENA D DEB, 4764

Orbit data source: Space-Track

THORAD AGENA D DEB, 4764 is space debris in SSO originally from a launch on Wed, 08 Apr 1970 UTC launched from the Air Force Western Test Range (AFWTR). Debris objects in space refer to the collection of defunct objects orbiting the Earth. Examples of debris include non-operational satellites, rocket bodies, and fragments generated from explosions, collisions, or faulty payload assembly.

Loading next visibility...
Identifier
4764, 1970-025DJ
Orbit
SSO
Country
Flag of USUS
Related business
Manufacturer
Unknown
Mission
Spacecraft
Bus & Motor
Unknown
Mass
Unknown
Launch date (UTC)
1970-04-08 (56 years ago)
Launch vehicle
Unknown
Launch site
Air Force Western Test Range (AFWTR)
Object type
Payload
Rocket body
Debris
Shape & HBR
Unknown shape, 0.1 m
Radar Cross Section
Medium (>0.1 m² and <1 m²)

Expand to show TLE details & history
Last TLE update: 15 hours ago

TLE from 15 hours ago
0 THORAD AGENA D DEB
1 04764U 70025DJ  26208.15124163  .00008520  00000-0  24332-2 0  9997
2 04764  99.5093 281.6206 0021120 289.4618  70.4287 14.45281350832618
Epoch: 2026-07-27T03:37Z
TLE epoch observation values (Epoch: 2026-07-27T03:37:47.276Z)
Latitude
-0.00013°
Longitude
-77.6653°
Altitude
739.014 km
Speed
7.488 km/s
True Right ascension
18h 46m 28s
True Declination
0° 00' 00"
Sunlit
Object was in full shadow at epoch
Visualization orbit readout
Latitude
Unknown
Longitude
Unknown
Altitude
Unknown
Speed
Unknown
Apparent Right ascension
Unknown
Apparent Declination
Unknown
Sunlit
N/A
Visualization observer readout
Local Sidereal Time
07:36:45
Azimuth
Unknown
Elevation
Unknown
Doppler factor
Unknown
Orbital elements
Apogee altitude
753.297 km
Perigee altitude
723.238 km
Semi-major axis
7,116.404 km
Eccentricity
0.00211
Inclination
99.5093°
RAAN
281.6206°
Arg. of periapsis
289.4618°
True anomaly
70.65694°
Mean anomaly
70.4287°
Eccentric anomaly
70.5428°
Mean motion
3.61537 °/min
Orbital period
99.57 mins
BSTAR
0.0024332
Loading maneuver chart data...
Computing Atmospheric mass density...

Documentation

Showing up to 5 results
|